Regional Weather Roundup
Issued by NWS Little Rock, AR

Home | Current Version | Previous Version | Graphics & Text | Print | Product List | Glossary On
Versions: 1 2 3 4 5 6 7 8 9 10 11 12 13 14 15 16 17 18 19 20 21 22 23 24 25 26 27 28 29 30 31 32 33 34 35 36 37 38 39 40 41 42 43 44 45
000
ASUS44 KLZK 210805
RWRLZK

WEATHER ROUNDUP FOR ARKANSAS
NATIONAL WEATHER SERVICE LITTLE ROCK AR
300 AM CDT SUN SEP 21 2014

NOTE: "FAIR" INDICATES FEW OR NO CLOUDS BELOW 12,000 FEET WITH NO
SIGNIFICANT WEATHER AND/OR OBSTRUCTIONS TO VISIBILITY.

ARZ001-003-010-029-210900-
NORTHWEST ARKANSAS

CITY           SKY/WX    TMP DP  RH WIND       PRES   REMARKS
FAYETTEVILLE   PTCLDY    65  65 100 S6        30.06F
FORT SMITH     CLEAR     72  69  90 CALM      30.03R
HARRISON       CLEAR     66  65  96 CALM      30.05F
BENTONVILLE    PTCLDY    68  64  88 CALM      30.06F
ROGERS         PTCLDY    70  66  87 SW7       30.06F
SILOAM SPGS    MOCLDY    68  63  83 S3        30.07S
HIGHFILL       PTCLDY    67  65  93 SW3       30.05F
$$

ARZ004-005-016-210900-
NORTH CENTRAL ARKANSAS

CITY           SKY/WX    TMP DP  RH WIND       PRES   REMARKS
BATESVILLE     CLEAR     68  64  88 CALM      30.00S
FLIPPIN        CLEAR     72  63  73 SW3       30.02F
MTN HOME       PTCLDY    70  67  90 W3        30.02S
$$

ARZ040-041-210900-
WEST CENTRAL ARKANSAS

CITY           SKY/WX    TMP DP  RH WIND       PRES   REMARKS
MENA             N/A     66  64  94 CALM      30.06S
MOUNT IDA      CLEAR     66  65  96 CALM      30.03S FOG
$$

ARZ009-017-025-026-028-210900-
NORTHEAST ARKANSAS

CITY           SKY/WX    TMP DP  RH WIND       PRES   REMARKS
CORNING          N/A     68  68 100 SW7       29.97F
JONESBORO      CLEAR     70  67  90 W3        29.98F
NEWPORT        CLEAR     68  66  93 S7        30.01S
WALNUT RIDGE   CLEAR     70  57  64 SW9       29.97F
BLYTHEVILLE    CLEAR     71  68  90 SW8       29.98F
$$

ARZ022-023-033-042-044-210900-
CENTRAL ARKANSAS

CITY           SKY/WX    TMP DP  RH WIND       PRES   REMARKS
LITTLE ROCK    CLEAR     71  67  87 W3        30.01S
N LITTLE ROCK    N/A     74  69  82 SW3       30.01S
JACKSONVILLE   CLEAR     68  67  94 CALM      30.01F
SEARCY         CLEAR     66  66 100 CALM      30.01F FOG
HOT SPRINGS    CLEAR     69  67  93 CALM      30.03S
RUSSELLVILLE   CLEAR     67  66  97 CALM      30.02F FOG
CLINTON        FAIR      64  64 100 CALM      30.03F FOG
$$

ARZ036-210900-
EAST ARKANSAS

CITY           SKY/WX    TMP DP  RH WIND       PRES   REMARKS
WEST MEMPHIS   CLEAR     67  67 100 CALM      29.99S
$$

ARZ050-053-066-070-073-210900-
SOUTHWEST ARKANSAS

CITY           SKY/WX    TMP DP  RH WIND       PRES   REMARKS
ARKADELPHIA    FAIR      70  70 100 CALM      30.02S FOG
CAMDEN         FOG       66  64  94 CALM      30.00F VSB<1/4
TEXARKANA      CLEAR     71  69  93 CALM      30.02S
EL DORADO      CLEAR     68  67  96 CALM      30.01S
DE QUEEN       FOG       67  67 100 CALM      30.01S VSB 3/4
$$

ARZ056-057-069-210900-
SOUTHEAST ARKANSAS

CITY           SKY/WX    TMP DP  RH WIND       PRES   REMARKS
PINE BLUFF     CLEAR     68  66  93 CALM      30.00F
STUTTGART      CLEAR     70  64  83 CALM      30.01F
MONTICELLO     CLEAR     70  66  87 CALM      30.00S

$$




USA.gov is the U.S. government's official web portal to all federal, state and local government web resources and services.